Notices

What's New in latest Release from April 7th, 2021:

- Updated Glossary, including Speed of Maximum Gust, and Total Hourly Precipitation

- Updated national and regional climate services offices contacts and prices information

- Addition of station inventory lists for 1981-2010, 1971-2000, and 1961-1990 Normals.

If you haven't already, please take our survey and provide feedback about our website: https://eccc.sondage-survey.ca/f/LanguageSelection.aspx?s=442ca660-fcf1-47c0-95a9-59707d6fd709

Hourly Data Report for January 24, 2021

CARBERRY CS
MANITOBA
Current Station Operator: ECCC - MSC

49°54'20.900" N
99°21'26.800" W
383.50 m
5010547
71170
WZE

Download Data

Hourly Data (January 2021)
Hourly Data Report for January 24, 2021
TIME
LST
Temp Definition
°C
Dew Point Definition
°C
Rel Hum Definition
%
Precip. Amount Definition
mm

Wind Dir Definition
10's deg

Wind Spd Definition
km/h
Visibility Definition
km
Stn Press Definition
kPa
Hmdx Definition


Wind Chill Definition


Weather Definition


00:00 -22.4 -25.8 74 0.0 28 19   97.12   -33 LegendNANA
01:00 -25.1 -28.3 75 0.0 27 13   97.16   -35 LegendNANA
02:00 -24.9 -27.6 78 0.0 24 8   97.20   -32 LegendNANA
03:00 -25.7 -28.5 77 0.0 25 12   97.25   -35 LegendNANA
04:00 -26.7 -29.8 76 0.0 24 10   97.32   -35 LegendNANA
05:00 -28.0 -31.3 73 0.0 26 13   97.36   -38 LegendNANA
06:00 -28.0 -31.1 75 0.0 25 12   97.41   -38 LegendNANA
07:00 -29.5 -32.6 75 0.0 28 10   97.42   -39 LegendNANA
08:00 -29.2 -32.3 75 0.0 23 10   97.47   -38 LegendNANA
09:00 -29.3 -32.8 72 0.0 25 9   97.52   -38 LegendNANA
10:00 -27.6 -31.5 69 0.2 24 8   97.58   -35 LegendNANA
11:00 -25.3 -29.9 65 0.0 23 4   97.60   -29 LegendNANA
12:00 -22.9 -28.9 58 0.0   0   97.56     LegendNANA
13:00 -22.5 -28.3 59 0.0 7 4   97.53   -26 LegendNANA
14:00 -21.5 -27.2 60 0.0 33 4   97.49   -25 LegendNANA
15:00 -20.7 -26.7 59 0.0 1 4   97.48   -24 LegendNANA
16:00 -20.4 -25.4 64 0.0 2 3   97.52   -23 LegendNANA
17:00 -22.9 -27.0 69 0.0 2 4   97.55   -27 LegendNANA
18:00 -25.0 -28.4 73 0.0 3 4   97.58   -29 LegendNANA
19:00 -22.3 -25.5 75 0.0 8 8   97.60   -29 LegendNANA
20:00 -22.0 -25.6 73 0.0 6 10   97.62   -30 LegendNANA
21:00 -23.2 -26.7 73 0.0 4 9   97.66   -31 LegendNANA
22:00 -23.5 -27.2 71 0.0 4 9   97.70   -31 LegendNANA
23:00 -23.7 -27.7 70 0.0 5 9   97.76   -31 LegendNANA

Notes on Data Quality.

Legend

  • E = Estimated
  • M = Missing
  • NA = Not Available*
  • [empty] = Indicates an unobserved value
Date modified: